EST,Max TemperatureF,Mean TemperatureF,Min TemperatureF,Max Dew PointF,MeanDew PointF,Min DewpointF,Max Humidity, Mean Humidity, Min Humidity, Max Sea Level PressureIn, Mean Sea Level PressureIn, Min Sea Level PressureIn, Max VisibilityMiles, Mean VisibilityMiles, Min VisibilityMiles, Max Wind SpeedMPH, Mean Wind SpeedMPH, Max Gust SpeedMPH,PrecipitationIn, CloudCover, Events, WindDirDegrees
2012-11-1,55,50,45,44,40,38,82,71,59,29.55,29.53,29.49,10,10,10,22,6,28,0.00,5,,211
2012-11-2,54,48,42,42,40,37,89,74,59,29.58,29.53,29.50,10,10,10,12,6,18,T,5,Rain,273
2012-11-3,53,48,42,38,36,32,82,68,54,29.74,29.66,29.58,10,10,10,21,7,18,0.00,6,,298
2012-11-4,54,45,36,37,33,28,82,66,50,29.94,29.83,29.74,10,10,10,16,8,30,T,4,,320
2012-11-5,40,34,27,25,21,16,75,60,44,30.11,30.02,29.94,10,10,10,15,7,20,0.00,7,,347
2012-11-6,41,33,25,23,19,17,75,57,38,30.26,30.20,30.12,10,10,10,13,3,,0.00,1,,326
2012-11-7,38,32,26,29,18,14,85,61,37,30.25,30.08,29.88,10,9,1,28,14,36,0.11,4,Snow,18
2012-11-8,39,36,32,36,33,28,92,87,82,29.86,29.77,29.70,10,4,1,26,17,37,0.78,8,Rain-Snow,6
2012-11-9,52,41,30,34,30,24,79,59,39,30.05,29.88,29.74,10,10,10,21,9,28,0.00,3,,326
2012-11-10,51,39,27,33,24,19,92,61,30,30.48,30.28,30.05,10,10,9,18,5,32,0.00,0,,313
2012-11-11,54,43,31,47,38,26,100,81,61,30.51,30.46,30.40,10,9,2,14,4,29,T,4,,211
2012-11-12,61,50,39,54,47,37,100,85,69,30.45,30.38,30.23,10,7,1,16,8,21,0.00,1,,193
2012-11-13,58,47,35,56,44,25,93,76,59,30.44,30.23,30.09,10,9,2,20,9,29,0.13,7,Rain,263
2012-11-14,46,38,30,25,24,21,78,60,42,30.56,30.52,30.44,10,10,10,15,8,33,0.00,0,,358
2012-11-15,45,38,30,28,25,23,78,64,49,30.51,30.42,30.33,10,10,10,15,7,20,0.00,0,,2
2012-11-16,45,37,29,29,27,25,85,69,53,30.43,30.34,30.30,10,10,10,10,3,23,0.00,0,,341
2012-11-17,48,38,27,29,27,24,92,67,42,30.70,30.59,30.45,10,10,7,12,3,16,0.00,0,,9
2012-11-18,45,35,24,24,19,12,92,60,27,30.76,30.71,30.66,10,10,7,7,3,,0.00,0,,1
2012-11-19,47,36,24,32,25,18,92,66,40,30.64,30.48,30.28,10,10,8,7,2,,0.00,0,,328
2012-11-20,49,37,24,29,26,23,92,69,46,30.27,30.21,30.16,10,8,1,7,3,,0.00,1,,321
2012-11-21,49,40,30,36,31,26,92,76,59,30.29,30.25,30.19,10,10,5,10,5,,0.00,3,,357
2012-11-22,52,40,27,41,34,26,100,82,63,30.29,30.22,30.12,10,6,2,9,3,,0.00,1,,222
2012-11-23,52,42,31,45,39,30,100,86,71,30.12,29.95,29.63,10,5,0,18,6,24,0.00,3,Fog,198
2012-11-24,47,39,31,42,28,16,92,65,37,29.60,29.52,29.44,10,10,8,22,11,28,T,5,Rain,271
2012-11-25,38,34,29,18,13,7,63,48,33,29.80,29.67,29.55,10,10,10,23,12,32,0.00,1,,262
2012-11-26,45,34,22,26,19,13,75,57,39,30.25,29.99,29.81,10,10,10,23,6,29,0.00,1,,265
2012-11-27,37,29,21,26,20,14,77,66,55,30.33,30.29,30.25,10,10,10,9,4,12,0.00,4,,13
2012-11-28,32,27,22,21,19,17,81,70,58,30.26,30.18,30.11,10,10,5,13,7,,T,7,Snow,2
2012-11-29,41,31,21,27,19,12,92,63,33,30.21,30.13,30.07,10,10,6,22,9,30,T,2,Snow,268
2012-11-30,33,27,20,22,4,-3,63,45,27,30.61,30.47,30.22,10,10,10,21,9,25,0.00,2,,352